Meteo orario Shusha

Oggi, 30 Settembre, Mercoledi

Tempo Temperatura Precipitazioni Vento Pressione Umidità
00:00 +9°C° 0 mm 0 m/s 661 mm Hg 73%
01:00 +9°C° 0 mm 0 m/s 661 mm Hg 75%
02:00 +8°C° 0 mm 0 m/s 660 mm Hg 77%
03:00 +8°C° 0 mm 0 m/s 660 mm Hg 78%
04:00 +8°C° 0 mm 0 m/s 660 mm Hg 79%
05:00 +7°C° 0 mm 0 m/s 660 mm Hg 80%
06:00 +7°C° 0 mm 0 m/s 659 mm Hg 81%
07:00 +10°C° 0 mm 1 m/s 660 mm Hg 74%
08:00 +11°C° 0 mm 1 m/s 660 mm Hg 68%
09:00 +13°C° 0 mm 1 m/s 661 mm Hg 62%
10:00 +14°C° 0 mm 2 m/s 660 mm Hg 59%
11:00 +15°C° 0 mm 2 m/s 660 mm Hg 56%
12:00 +16°C° 0 mm 3 m/s 660 mm Hg 54%
13:00 +16°C° 0 mm 3 m/s 660 mm Hg 56%
14:00 +16°C° 0 mm 3 m/s 659 mm Hg 57%
15:00 +16°C° 0 mm 3 m/s 659 mm Hg 59%
16:00 +15°C° 0 mm 2 m/s 659 mm Hg 63%
17:00 +14°C° 0 mm 2 m/s 659 mm Hg 67%
18:00 +13°C° 0 mm 1 m/s 659 mm Hg 71%
19:00 +13°C° 0 mm 1 m/s 659 mm Hg 73%
20:00 +12°C° 0 mm 1 m/s 659 mm Hg 76%
21:00 +12°C° 0 mm 1 m/s 659 mm Hg 78%
22:00 +12°C° 0 mm 1 m/s 659 mm Hg 80%
23:00 +12°C° 0 mm 1 m/s 660 mm Hg 81%

Domani, 1 Ottobre, Giovedi

Tempo Temperatura Precipitazioni Vento Pressione Umidità
00:00 +11°C° 0 mm 0 m/s 660 mm Hg 83%
01:00 +10°C° 0 mm 0 m/s 660 mm Hg 84%
02:00 +10°C° 0 mm 0 m/s 659 mm Hg 84%
03:00 +10°C° 0 mm 0 m/s 659 mm Hg 85%
04:00 +10°C° 0 mm 0 m/s 659 mm Hg 86%
05:00 +9°C° 0 mm 0 m/s 660 mm Hg 88%
06:00 +9°C° 0 mm 0 m/s 660 mm Hg 89%
07:00 +11°C° 0 mm 1 m/s 660 mm Hg 85%
08:00 +12°C° 0 mm 1 m/s 660 mm Hg 80%
09:00 +13°C° 0 mm 2 m/s 661 mm Hg 75%
10:00 +14°C° 0 mm 2 m/s 661 mm Hg 72%
11:00 +15°C° 0 mm 2 m/s 661 mm Hg 69%
12:00 +16°C° 0 mm 2 m/s 660 mm Hg 66%
13:00 +16°C° 0 mm 2 m/s 660 mm Hg 65%
14:00 +16°C° 0 mm 2 m/s 660 mm Hg 65%
15:00 +16°C° 0 mm 2 m/s 659 mm Hg 64%
16:00 +16°C° 0 mm 2 m/s 659 mm Hg 67%
17:00 +15°C° 0 mm 1 m/s 659 mm Hg 70%
18:00 +14°C° 0 mm 1 m/s 659 mm Hg 73%
19:00 +14°C° 0 mm 1 m/s 659 mm Hg 76%
20:00 +13°C° 0 mm 1 m/s 660 mm Hg 78%
21:00 +11°C° 0 mm 0 m/s 660 mm Hg 81%
22:00 +11°C° 0 mm 0 m/s 660 mm Hg 82%
23:00 +11°C° 0 mm 0 m/s 660 mm Hg 83%

Dopodomani, 2 Ottobre, Venerdi

Tempo Temperatura Precipitazioni Vento Pressione Umidità
00:00 +11°C° 0 mm 0 m/s 660 mm Hg 84%
01:00 +10°C° 0 mm 0 m/s 660 mm Hg 85%
02:00 +10°C° 0 mm 0 m/s 659 mm Hg 86%
03:00 +9°C° 0 mm 0 m/s 659 mm Hg 87%
04:00 +9°C° 0 mm 0 m/s 659 mm Hg 87%
05:00 +9°C° 0 mm 0 m/s 659 mm Hg 86%
06:00 +9°C° 0 mm 0 m/s 660 mm Hg 86%
07:00 +12°C° 0 mm 1 m/s 660 mm Hg 78%
08:00 +14°C° 0 mm 1 m/s 661 mm Hg 70%
09:00 +16°C° 0 mm 1 m/s 661 mm Hg 62%
10:00 +17°C° 0 mm 2 m/s 661 mm Hg 59%
11:00 +18°C° 0 mm 2 m/s 661 mm Hg 56%
12:00 +19°C° 0 mm 3 m/s 661 mm Hg 53%
13:00 +19°C° 0 mm 3 m/s 661 mm Hg 53%
14:00 +19°C° 0 mm 3 m/s 661 mm Hg 53%
15:00 +19°C° 0 mm 2 m/s 660 mm Hg 53%
16:00 +18°C° 0.1 mm 2 m/s 660 mm Hg 59%
17:00 +16°C° 0.1 mm 1 m/s 660 mm Hg 65%
18:00 +15°C° 0.1 mm 1 m/s 660 mm Hg 71%
19:00 +14°C° 0.1 mm 1 m/s 660 mm Hg 73%
20:00 +14°C° 0.1 mm 1 m/s 660 mm Hg 76%
21:00 +13°C° 0.1 mm 1 m/s 660 mm Hg 78%
22:00 +13°C° 0.2 mm 1 m/s 660 mm Hg 81%
23:00 +13°C° 0.2 mm 1 m/s 660 mm Hg 84%

3 Ottobre, Sabato

Tempo Temperatura Precipitazioni Vento Pressione Umidità
00:00 +12°C° 0.2 mm 1 m/s 660 mm Hg 87%
01:00 +12°C° 0 mm 1 m/s 660 mm Hg 87%
02:00 +12°C° 0 mm 1 m/s 660 mm Hg 87%
03:00 +12°C° 0 mm 1 m/s 660 mm Hg 86%
04:00 +10°C° 0 mm 0 m/s 660 mm Hg 86%
05:00 +10°C° 0 mm 0 m/s 660 mm Hg 86%
06:00 +10°C° 0 mm 0 m/s 660 mm Hg 86%
07:00 +13°C° 0 mm 1 m/s 661 mm Hg 81%
08:00 +14°C° 0 mm 1 m/s 662 mm Hg 75%
09:00 +16°C° 0 mm 2 m/s 662 mm Hg 69%
10:00 +17°C° 0 mm 2 m/s 662 mm Hg 66%
11:00 +17°C° 0 mm 2 m/s 662 mm Hg 64%
12:00 +18°C° 0 mm 2 m/s 662 mm Hg 62%
13:00 +18°C° 0 mm 2 m/s 662 mm Hg 62%
14:00 +18°C° 0 mm 2 m/s 662 mm Hg 62%
15:00 +18°C° 0 mm 2 m/s 662 mm Hg 62%
16:00 +17°C° 0 mm 2 m/s 662 mm Hg 65%
17:00 +18°C° 0 mm 1 m/s 662 mm Hg 68%
18:00 +16°C° 0 mm 1 m/s 662 mm Hg 72%
19:00 +16°C° 0 mm 1 m/s 662 mm Hg 73%
20:00 +15°C° 0 mm 1 m/s 663 mm Hg 74%
21:00 +15°C° 0 mm 1 m/s 663 mm Hg 75%
22:00 +15°C° 0 mm 1 m/s 663 mm Hg 77%
23:00 +14°C° 0 mm 1 m/s 663 mm Hg 79%

4 Ottobre, Domenica

Tempo Temperatura Precipitazioni Vento Pressione Umidità
00:00 +13°C° 0 mm 0 m/s 663 mm Hg 82%
01:00 +12°C° 0 mm 0 m/s 663 mm Hg 83%
02:00 +12°C° 0 mm 0 m/s 663 mm Hg 84%
03:00 +11°C° 0 mm 0 m/s 662 mm Hg 85%
04:00 +11°C° 0 mm 0 m/s 662 mm Hg 85%
05:00 +11°C° 0 mm 0 m/s 662 mm Hg 86%
06:00 +10°C° 0 mm 0 m/s 663 mm Hg 86%
07:00 +13°C° 0 mm 1 m/s 663 mm Hg 79%
08:00 +14°C° 0 mm 1 m/s 664 mm Hg 72%
09:00 +16°C° 0 mm 1 m/s 664 mm Hg 65%
10:00 +17°C° 0 mm 2 m/s 664 mm Hg 62%
11:00 +18°C° 0 mm 2 m/s 664 mm Hg 58%
12:00 +19°C° 0 mm 2 m/s 664 mm Hg 55%
13:00 +19°C° 0 mm 2 m/s 663 mm Hg 55%
14:00 +19°C° 0 mm 2 m/s 663 mm Hg 54%
15:00 +19°C° 0 mm 2 m/s 663 mm Hg 54%
16:00 +18°C° 0 mm 2 m/s 663 mm Hg 58%
17:00 +16°C° 0 mm 1 m/s 662 mm Hg 62%
18:00 +15°C° 0 mm 1 m/s 662 mm Hg 66%
19:00 +15°C° 0 mm 1 m/s 662 mm Hg 68%
20:00 +14°C° 0 mm 1 m/s 663 mm Hg 70%
21:00 +14°C° 0 mm 1 m/s 663 mm Hg 72%
22:00 +13°C° 0 mm 1 m/s 663 mm Hg 73%
23:00 +13°C° 0 mm 1 m/s 663 mm Hg 74%

5 Ottobre, Lunedi

Tempo Temperatura Precipitazioni Vento Pressione Umidità
00:00 +13°C° 0 mm 1 m/s 662 mm Hg 75%
01:00 +12°C° 0 mm 1 m/s 662 mm Hg 76%
02:00 +12°C° 0 mm 1 m/s 662 mm Hg 77%
03:00 +12°C° 0 mm 1 m/s 662 mm Hg 77%
04:00 +12°C° 0 mm 1 m/s 662 mm Hg 78%
05:00 +12°C° 0 mm 1 m/s 662 mm Hg 78%
06:00 +11°C° 0 mm 1 m/s 662 mm Hg 78%
07:00 +13°C° 0 mm 1 m/s 662 mm Hg 71%
08:00 +15°C° 0 mm 1 m/s 663 mm Hg 64%
09:00 +18°C° 0 mm 1 m/s 663 mm Hg 56%
10:00 +18°C° 0 mm 2 m/s 663 mm Hg 53%
11:00 +19°C° 0 mm 2 m/s 663 mm Hg 50%
12:00 +20°C° 0 mm 3 m/s 663 mm Hg 46%
13:00 +20°C° 0 mm 3 m/s 663 mm Hg 46%
14:00 +20°C° 0 mm 2 m/s 663 mm Hg 45%
15:00 +20°C° 0 mm 2 m/s 662 mm Hg 45%
16:00 +19°C° 0 mm 2 m/s 662 mm Hg 49%
17:00 +18°C° 0 mm 1 m/s 661 mm Hg 53%
18:00 +15°C° 0 mm 1 m/s 661 mm Hg 57%
19:00 +15°C° 0 mm 1 m/s 661 mm Hg 58%
20:00 +15°C° 0 mm 1 m/s 662 mm Hg 59%
21:00 +14°C° 0 mm 1 m/s 662 mm Hg 61%
22:00 +14°C° 0 mm 1 m/s 662 mm Hg 62%
23:00 +13°C° 0 mm 1 m/s 662 mm Hg 64%
Mostrare altro